[[{"header":{"parameterUnit":"m.s-1","parameterCategory":1,"la1":30.2991,"la2":30.254,"lo1":-89.0895,"lo2":-89.0444,"dy":0.0017,"dx":0.0017,"nx":28,"ny":28,"refTime":"2024-07-29T21:00:00:Z","depth":0,"parameterNumber":2,"parameterNumberName":"U-component_of_WINDS"},"data":[0,0,0,0,0,0,0,0,0,0,0,0,0,0,0,0,0,0,0,0,0,0,0,0,0,0,0,0,0,0,0,0,0,0,0,0,0,0,0,0,0,0,0,0,0,0,0,0,0,0,0,0,0,0,0,0,0,0,2.15,2.1502,0,2.1655,2.1657,2.1659,2.1689,2.1688,2.1686,2.1685,2.1847,2.1852,2.1857,0,0,0,0,0,0,0,0,0,0,0,0,0,2.1231,2.1236,2.15,2.1502,2.1504,2.1655,2.1657,2.1659,2.1689,2.1687,2.1686,2.1685,2.1845,2.1851,2.1858,0,0,0,0,0,0,0,0,0,0,0,0,0,2.1363,2.1238,2.15,2.1537,2.1542,2.1655,2.1657,2.166,2.1689,2.1687,2.1686,2.1684,2.1843,2.1851,2.1859,2.1946,0,0,2.1884,2.1887,0,0,0,0,0,0,0,0,2.1356,2.1373,2.153,2.1535,2.154,2.1651,2.1622,2.1756,2.169,2.1633,2.1685,2.1683,2.1783,2.1796,2.1829,2.1954,2.1961,2.1884,2.1889,2.1893,2.1895,0,0,0,0,0,0,0,2.1347,2.1367,2.1562,2.1532,2.1538,2.1546,2.1563,2.1647,2.1717,2.1638,2.1641,2.1659,2.1786,2.1821,2.1833,2.1963,2.1884,2.1891,2.1896,2.19,2.2166,2.2168,0,0,0,0,0,0,2.1331,2.1359,2.1557,2.1566,2.1442,2.1553,2.1571,2.1617,2.1716,2.1729,2.166,2.1659,2.1808,2.1824,2.1839,2.1947,2.1893,2.19,2.1905,2.2164,2.2166,2.2169,0,0,0,0,0,0,2.1325,2.1348,2.155,2.1463,2.149,2.1559,2.1611,2.1621,2.1657,2.1732,2.1745,2.1683,2.1807,2.1828,2.1919,2.1953,2.1904,2.1912,2.2161,2.2165,2.2168,2.2164,0,0,0,0,0,0,2.1317,2.1346,2.1379,2.1464,2.1494,2.1627,2.1613,2.1626,2.1671,2.1671,2.1758,2.177,2.1808,2.1906,2.1927,2.1963,2.1918,2.2158,2.2163,2.2166,2.2161,2.2167,2.2171,0,0,0,0,0,2.1307,2.1373,2.1381,2.1405,2.1538,2.1629,2.1646,2.1687,2.1673,2.1708,2.1756,2.1768,2.1946,2.1916,2.1939,2.1978,2.2156,2.2161,2.2166,2.2159,2.2166,2.2171,0,0,0,0,0,0,2.1292,2.1385,2.1395,2.1489,2.1551,2.1634,2.1679,2.1693,2.176,2.1758,2.1807,2.1826,2.1914,2.1956,2.192,2.2068,2.205,2.206,2.2037,2.2044,2.2049,2.2037,2.1925,0,0,0,0,0,2.1299,2.1365,2.1443,2.1519,2.1549,2.1609,2.165,2.1676,2.1742,2.1768,2.1823,2.1887,2.1958,2.2003,2.2073,2.2168,2.2186,2.2206,2.2211,2.2215,2.2223,2.2275,2.2284,2.2185,2.2185,2.2185,0,0,2.1315,2.1374,2.1413,2.1518,2.1568,2.1635,2.163,2.1702,2.1753,2.178,2.1868,2.1911,2.1986,2.2079,2.2123,2.2116,2.2254,2.2221,2.2223,2.2229,2.2281,2.229,2.2298,2.2188,2.2187,2.2187,0,0,2.1379,2.1431,2.1499,2.155,2.1626,2.1665,2.1681,2.1762,2.1791,2.1881,2.1902,2.1963,2.2084,2.2136,2.2178,2.2261,2.2273,2.2282,2.2308,2.2358,2.2366,2.2373,2.2401,2.2411,2.229,2.229,2.229,0,2.139,2.1492,2.1533,2.1603,2.1648,2.1675,2.1745,2.1792,2.1887,2.1918,2.1909,2.206,2.2113,2.2217,2.2237,2.2271,2.2291,2.2272,2.2361,2.2369,2.2376,2.2404,2.2414,2.229,2.229,2.229,2.229,0,2.1501,2.1571,2.1617,2.1707,2.1758,2.1827,2.1879,2.1926,2.1947,2.1987,2.2077,2.2141,2.2223,2.225,2.2272,2.2358,2.2351,2.2351,2.2335,2.2385,2.2412,2.2423,2.2291,2.229,2.229,2.229,0,0,2.1559,2.167,2.1687,2.1727,2.1813,2.1868,2.1939,2.2018,2.2056,2.2121,2.2182,2.2282,2.2283,2.233,2.2359,2.2403,2.2463,2.2398,2.24,2.2407,2.256,2.2558,2.257,2.2472,2.2474,2.2476,2.2553,0,2.1632,2.1759,2.1798,2.1904,2.1968,2.1994,2.2056,2.2115,2.2154,2.2215,2.2259,2.2329,2.2324,2.2353,2.2398,2.2446,2.2494,2.2441,2.2528,2.2531,2.2508,2.2584,2.2584,2.2653,2.2564,2.2566,2.2567,0,2.1735,2.18,2.1912,2.1988,2.2017,2.2072,2.2147,2.2205,2.2273,2.2298,2.235,2.2375,2.245,2.2429,2.2533,2.2496,2.2534,2.2563,2.2567,2.2576,2.2551,2.2594,2.2677,2.2687,2.2584,2.2583,2.2582,0,2.1764,2.188,2.1962,2.1996,2.2088,2.2126,2.2166,2.2232,2.2276,2.2342,2.2372,2.2446,2.2486,2.2543,2.2586,2.2568,2.2686,2.267,2.2709,2.2707,2.2732,2.273,2.282,2.2758,2.2758,2.2758,2.2757,0,2.1842,2.1909,2.1976,2.2027,2.2103,2.2147,2.2221,2.2263,2.2321,2.2379,2.2407,2.2462,2.2516,2.2578,2.2613,2.2693,2.2711,2.2734,2.2742,2.2731,2.2728,2.2756,2.2752,2.276,2.276,2.2759,2.2759,0,2.1887,2.1936,2.2026,2.2105,2.2126,2.2179,2.2247,2.2296,2.2336,2.241,2.243,2.2492,2.2566,2.2616,2.2711,2.2734,2.2821,2.2829,2.2797,2.2801,2.2837,2.2832,2.2948,2.2965,2.2892,2.2893,2.2893,0,2.1933,2.1985,2.2069,2.211,2.215,2.2216,2.2261,2.2307,2.2353,2.2433,2.2473,2.2549,2.2612,2.2729,2.2783,2.2856,2.2865,2.29,2.2876,2.2862,2.2864,2.286,2.2865,2.2904,2.2904,2.2905,2.2905,0,2.2008,2.2029,2.2093,2.2165,2.2218,2.2277,2.2337,2.2369,2.2425,2.2475,2.2551,2.2599,2.2696,2.277,2.2848,2.2889,2.2907,2.2913,2.2925,2.2914,2.2893,2.2903,2.2807,2.291,2.2909,2.2909,2.2909,2.2908,2.2055,2.2102,2.2168,2.2238,2.2287,2.2342,2.2392,2.2437,2.2501,2.2582,2.2605,2.2684,2.275,2.2855,2.2898,2.296,2.2957,2.2975,2.298,2.2984,2.2983,2.2884,2.2975,2.2975,2.2975,2.2975,2.2975,0,2.213,2.2174,2.2238,2.2319,2.2374,2.2385,2.2451,2.2496,2.2565,2.2625,2.2685,2.2772,2.2844,2.2903,2.2978,2.3016,2.3026,2.3034,2.3031,2.304,2.2983,2.2964,2.3025,2.3025,2.3025,2.3025,2.3025,2.3025,2.2176,2.2255,2.2284,2.2388,2.2432,2.2508,2.2545,2.2595,2.2643,2.2738,2.2797,2.2835,2.2895,2.2974,2.304,2.3056,2.3082,2.3088,2.3105,2.305,2.3044,2.3039,2.3021,2.3094,2.3094,2.3158,2.3158,2.3158]},{"header":{"parameterUnit":"m.s-1","parameterCategory":1,"la1":30.2991,"la2":30.254,"lo1":-89.0895,"lo2":-89.0444,"dy":0.0017,"dx":0.0017,"nx":28,"ny":28,"refTime":"2024-07-29T21:00:00:Z","depth":0,"parameterNumber":3,"parameterNumberName":"V-component_of_WINDS"},"data":[0,0,0,0,0,0,0,0,0,0,0,0,0,0,0,0,0,0,0,0,0,0,0,0,0,0,0,0,0,0,0,0,0,0,0,0,0,0,0,0,0,0,0,0,0,0,0,0,0,0,0,0,0,0,0,0,0,0,3.9261,3.9261,0,3.9237,3.9237,3.9236,3.9223,3.9223,3.9223,3.9223,3.9196,3.9196,3.9195,0,0,0,0,0,0,0,0,0,0,0,0,0,3.9292,3.9292,3.9261,3.9261,3.926,3.9237,3.9237,3.9236,3.9223,3.9223,3.9223,3.9223,3.9196,3.9196,3.9195,0,0,0,0,0,0,0,0,0,0,0,0,0,3.9274,3.9291,3.9261,3.9251,3.925,3.9237,3.9237,3.9236,3.9223,3.9223,3.9223,3.9223,3.9197,3.9196,3.9195,3.9189,0,0,3.9192,3.9191,0,0,0,0,0,0,0,0,3.9275,3.9273,3.9253,3.9252,3.925,3.9233,3.9238,3.922,3.9223,3.9233,3.9223,3.9223,3.9208,3.9206,3.9202,3.9188,3.9187,3.9191,3.9191,3.919,3.919,0,0,0,0,0,0,0,3.9277,3.9274,3.9251,3.9252,3.9251,3.9247,3.9244,3.9234,3.9221,3.9232,3.9231,3.9229,3.9208,3.9203,3.9201,3.9186,3.9191,3.9191,3.919,3.919,3.9164,3.9164,0,0,0,0,0,0,3.928,3.9275,3.9252,3.9251,3.9263,3.9246,3.9243,3.9239,3.9221,3.9219,3.9229,3.9228,3.9205,3.9202,3.92,3.9191,3.919,3.9189,3.9189,3.9164,3.9164,3.9164,0,0,0,0,0,0,3.9281,3.9278,3.9253,3.9263,3.9259,3.9246,3.924,3.9238,3.9233,3.9219,3.9216,3.9227,3.9205,3.9202,3.9192,3.919,3.9189,3.9188,3.9164,3.9164,3.9164,3.9174,0,0,0,0,0,0,3.9281,3.9278,3.9277,3.9263,3.9259,3.9246,3.924,3.9238,3.9232,3.9231,3.9216,3.9213,3.9204,3.9193,3.9191,3.9188,3.9187,3.9164,3.9164,3.9164,3.9173,3.9174,3.9174,0,0,0,0,0,3.9283,3.9281,3.9277,3.9274,3.9257,3.9246,3.9244,3.9234,3.9232,3.923,3.922,3.9214,3.9191,3.9192,3.9189,3.9187,3.9164,3.9164,3.9164,3.9173,3.9174,3.9174,0,0,0,0,0,0,3.9295,3.9279,3.9274,3.9268,3.9259,3.9244,3.9241,3.9235,3.9226,3.9225,3.9213,3.9209,3.92,3.9192,3.9195,3.9179,3.9177,3.9176,3.9185,3.9185,3.9185,3.9187,3.9186,0,0,0,0,0,3.9297,3.9291,3.9276,3.9272,3.9267,3.9255,3.925,3.9243,3.9232,3.9228,3.9218,3.9207,3.9197,3.9191,3.9181,3.9172,3.9167,3.9169,3.9169,3.9169,3.9169,3.9161,3.9161,3.9163,3.9163,3.9163,0,0,3.9301,3.9291,3.9288,3.9274,3.9266,3.9258,3.9252,3.9244,3.9238,3.9227,3.9217,3.9208,3.9195,3.9185,3.918,3.9179,3.9167,3.9169,3.917,3.9169,3.9161,3.9161,3.9161,3.9163,3.9163,3.9163,0,0,3.9304,3.9297,3.9292,3.9284,3.9271,3.9263,3.9261,3.9247,3.9241,3.9231,3.9222,3.9213,3.9197,3.9187,3.918,3.9177,3.917,3.9174,3.9176,3.9169,3.9169,3.9169,3.9166,3.9165,3.9174,3.9174,3.9174,0,3.9311,3.93,3.929,3.9282,3.9276,3.9265,3.9259,3.9251,3.9236,3.9231,3.9229,3.9207,3.9197,3.9184,3.9183,3.9178,3.9174,3.9176,3.917,3.917,3.9169,3.9166,3.9165,3.9174,3.9174,3.9174,3.9174,0,3.9307,3.93,3.9297,3.9282,3.9275,3.9268,3.9256,3.925,3.9243,3.9234,3.9222,3.921,3.9196,3.9193,3.9186,3.9177,3.9176,3.9173,3.917,3.9169,3.9166,3.9165,3.9175,3.9175,3.9174,3.9174,0,0,3.9319,3.9298,3.9297,3.9289,3.9274,3.9267,3.9259,3.9246,3.924,3.9229,3.922,3.9206,3.9201,3.9193,3.9185,3.9179,3.9175,3.9175,3.9175,3.9174,3.9162,3.9164,3.9163,3.917,3.917,3.917,3.9162,0,3.9319,3.9305,3.9294,3.9283,3.9275,3.9264,3.9256,3.9245,3.9236,3.9226,3.9215,3.9204,3.9201,3.9195,3.9189,3.9177,3.9172,3.9177,3.916,3.916,3.9163,3.9162,3.9165,3.9159,3.9161,3.9161,3.9161,0,3.9318,3.9307,3.9295,3.9279,3.9275,3.9269,3.9255,3.9246,3.9232,3.9226,3.9216,3.9207,3.9196,3.9194,3.9176,3.918,3.9172,3.9165,3.9164,3.9162,3.916,3.9158,3.9157,3.9156,3.916,3.916,3.916,0,3.9325,3.9308,3.9299,3.9293,3.9274,3.9269,3.9261,3.9247,3.9239,3.9226,3.9221,3.9207,3.9199,3.9187,3.9174,3.9174,3.9157,3.9155,3.915,3.915,3.9147,3.9147,3.9143,3.9143,3.9143,3.9143,3.9143,0,3.9326,3.9319,3.9302,3.9296,3.9286,3.9274,3.9264,3.9255,3.9242,3.9233,3.9222,3.9213,3.9197,3.9185,3.9174,3.916,3.9157,3.915,3.9147,3.9151,3.9152,3.9145,3.9145,3.9143,3.9143,3.9143,3.9143,0,3.9334,3.9322,3.931,3.9293,3.9288,3.9282,3.9266,3.9259,3.9249,3.9236,3.9233,3.9216,3.9202,3.9187,3.9168,3.916,3.9146,3.9143,3.9151,3.9149,3.9145,3.9145,3.9136,3.9133,3.9136,3.9136,3.9136,0,3.9335,3.9329,3.9311,3.9304,3.9296,3.9285,3.9277,3.9264,3.9255,3.9237,3.9232,3.9216,3.9203,3.918,3.9165,3.9149,3.9145,3.9143,3.9142,3.9145,3.9143,3.9143,3.9141,3.9143,3.9143,3.9143,3.9143,0,3.9337,3.9331,3.9321,3.9307,3.9297,3.9286,3.9274,3.9269,3.9252,3.9243,3.9228,3.9218,3.9197,3.9182,3.9164,3.9153,3.9144,3.9143,3.9141,3.9144,3.9148,3.9144,3.9151,3.9143,3.9143,3.9143,3.9143,3.9143,3.9341,3.9334,3.932,3.9308,3.9297,3.9286,3.9277,3.9266,3.9253,3.9236,3.9228,3.9213,3.9196,3.9171,3.9161,3.9147,3.9145,3.9142,3.9141,3.9141,3.914,3.9151,3.9144,3.9144,3.9144,3.9144,3.9144,0,3.9341,3.9332,3.932,3.9304,3.9293,3.9287,3.9273,3.9264,3.9251,3.9237,3.9224,3.9205,3.9189,3.9172,3.9155,3.9147,3.9142,3.9142,3.9142,3.914,3.9144,3.9147,3.9146,3.9146,3.9146,3.9146,3.9146,3.9146,3.9341,3.9329,3.9321,3.9303,3.9292,3.9278,3.927,3.9258,3.9247,3.9227,3.9214,3.9203,3.9187,3.9168,3.9152,3.9147,3.914,3.9141,3.9135,3.914,3.914,3.914,3.9142,3.914,3.914,3.9132,3.9132,3.9132]}]]